[[{"header":{"parameterUnit":"m.s-1","parameterCategory":1,"la1":30.2991,"la2":30.254,"lo1":-89.0895,"lo2":-89.0444,"dy":0.0017,"dx":0.0017,"nx":28,"ny":28,"refTime":"2023-03-27T15:00:00:Z","depth":0,"parameterNumber":2,"parameterNumberName":"U-component_of_WINDS"},"data":[0,0,0,0,0,0,0,0,0,0,0,0,0,0,0,0,0,0,0,0,0,0,0,0,0,0,0,0,0,0,0,0,0,0,0,0,0,0,0,0,0,0,0,0,0,0,0,0,0,0,0,0,0,0,0,0,0,0,-2.3789,-2.3789,0,-2.3784,-2.3784,-2.3783,-2.3688,-2.3686,-2.3683,-2.3681,-2.3679,-2.3681,-2.3683,0,0,0,0,0,0,0,0,0,0,0,0,0,-2.3721,-2.3722,-2.3789,-2.3789,-2.3789,-2.3784,-2.3784,-2.3783,-2.3689,-2.3686,-2.3683,-2.368,-2.3678,-2.3681,-2.3683,0,0,0,0,0,0,0,0,0,0,0,0,0,-2.3736,-2.3723,-2.3789,-2.3741,-2.3737,-2.3784,-2.3784,-2.3783,-2.3689,-2.3685,-2.3682,-2.3678,-2.3677,-2.368,-2.3684,-2.3778,0,0,-2.3694,-2.3695,0,0,0,0,0,0,0,0,-2.3736,-2.3739,-2.3748,-2.3744,-2.374,-2.3733,-2.3758,-2.3782,-2.369,-2.3707,-2.3681,-2.3677,-2.37,-2.3701,-2.3708,-2.3777,-2.3777,-2.3694,-2.3696,-2.3698,-2.3699,0,0,0,0,0,0,0,-2.3735,-2.3739,-2.3787,-2.3749,-2.3743,-2.372,-2.3719,-2.3762,-2.3724,-2.3706,-2.3699,-2.3699,-2.3697,-2.3705,-2.3707,-2.3777,-2.3694,-2.3697,-2.3699,-2.37,-2.3923,-2.3927,0,0,0,0,0,0,-2.374,-2.3739,-2.3787,-2.3787,-2.3728,-2.3725,-2.3723,-2.3739,-2.3724,-2.3718,-2.3702,-2.3695,-2.3701,-2.3704,-2.3707,-2.3816,-2.3698,-2.3701,-2.3703,-2.3919,-2.3924,-2.3928,0,0,0,0,0,0,-2.3739,-2.3745,-2.3788,-2.3761,-2.3764,-2.373,-2.3749,-2.3741,-2.3749,-2.3721,-2.3714,-2.3718,-2.3699,-2.3702,-2.376,-2.3815,-2.3702,-2.3705,-2.3914,-2.392,-2.3926,-2.4036,0,0,0,0,0,0,-2.3737,-2.3745,-2.378,-2.3762,-2.3766,-2.3841,-2.3752,-2.3743,-2.3754,-2.3744,-2.3734,-2.3728,-2.3696,-2.3756,-2.3764,-2.3817,-2.3708,-2.3909,-2.3917,-2.3924,-2.4027,-2.4044,-2.4059,0,0,0,0,0,-2.3735,-2.3812,-2.3783,-2.3789,-2.3809,-2.3844,-2.3846,-2.3807,-2.3759,-2.3794,-2.3776,-2.3729,-2.3807,-2.3763,-2.3771,-2.3826,-2.3906,-2.3915,-2.3923,-2.402,-2.4041,-2.4059,0,0,0,0,0,0,-2.384,-2.3809,-2.3776,-2.3849,-2.385,-2.3828,-2.3871,-2.383,-2.3846,-2.3836,-2.3787,-2.3785,-2.3851,-2.3844,-2.3795,-2.3916,-2.3848,-2.3859,-2.3919,-2.3939,-2.3955,-2.3956,-2.3711,0,0,0,0,0,-2.3871,-2.3901,-2.3873,-2.394,-2.3942,-2.3907,-2.3921,-2.3889,-2.3889,-2.3889,-2.3875,-2.3877,-2.3902,-2.3919,-2.3941,-2.4024,-2.4021,-2.4067,-2.4083,-2.4096,-2.4107,-2.4151,-2.4171,-2.3957,-2.3957,-2.3957,0,0,-2.3937,-2.3923,-2.3946,-2.3961,-2.3958,-2.3991,-2.3908,-2.3946,-2.3971,-2.3895,-2.3949,-2.3939,-2.3937,-2.4009,-2.404,-2.4005,-2.4165,-2.4107,-2.4118,-2.4122,-2.4162,-2.4182,-2.42,-2.3963,-2.3962,-2.3961,0,0,-2.4073,-2.4066,-2.4121,-2.4119,-2.4114,-2.409,-2.4103,-2.4087,-2.4077,-2.413,-2.4074,-2.4102,-2.4146,-2.4147,-2.4154,-2.4289,-2.4246,-2.4297,-2.4383,-2.4426,-2.4443,-2.4458,-2.4507,-2.4525,-2.4307,-2.4308,-2.4308,0,-2.4156,-2.4202,-2.4155,-2.4197,-2.4206,-2.4136,-2.4193,-2.4193,-2.4197,-2.4205,-2.4165,-2.4218,-2.4212,-2.4283,-2.4316,-2.4323,-2.4338,-2.4299,-2.4444,-2.4459,-2.4472,-2.4518,-2.4537,-2.4314,-2.4313,-2.4312,-2.4312,0,-2.4305,-2.4338,-2.4383,-2.4386,-2.44,-2.4449,-2.441,-2.4429,-2.4396,-2.4377,-2.4431,-2.4421,-2.4439,-2.4453,-2.4423,-2.452,-2.4499,-2.4453,-2.4384,-2.4499,-2.4542,-2.4559,-2.4323,-2.4321,-2.4319,-2.4317,0,0,-2.451,-2.4484,-2.4502,-2.4503,-2.4491,-2.4517,-2.4562,-2.4578,-2.4596,-2.46,-2.4638,-2.4676,-2.4632,-2.464,-2.4608,-2.4646,-2.4755,-2.4595,-2.4594,-2.4626,-2.4862,-2.4899,-2.492,-2.4725,-2.4728,-2.4731,-2.4863,0,-2.4643,-2.4719,-2.4677,-2.4759,-2.4789,-2.4723,-2.4762,-2.476,-2.4742,-2.4766,-2.4746,-2.4774,-2.4714,-2.4718,-2.4753,-2.4734,-2.4802,-2.4724,-2.4761,-2.4763,-2.4766,-2.4942,-2.4981,-2.5106,-2.4879,-2.4882,-2.4884,0,-2.4809,-2.4818,-2.4903,-2.4885,-2.4896,-2.4933,-2.4944,-2.4966,-2.4963,-2.4947,-2.4954,-2.4913,-2.4957,-2.4887,-2.4948,-2.4896,-2.4908,-2.4901,-2.4905,-2.4909,-2.4832,-2.4952,-2.5145,-2.5165,-2.491,-2.4908,-2.4906,0,-2.4952,-2.4985,-2.504,-2.5042,-2.5022,-2.505,-2.5043,-2.5035,-2.5047,-2.5057,-2.5064,-2.5079,-2.5089,-2.5102,-2.5066,-2.5018,-2.5132,-2.5059,-2.5121,-2.5122,-2.515,-2.5149,-2.5349,-2.5155,-2.5155,-2.5155,-2.5154,0,-2.5106,-2.5161,-2.5104,-2.5138,-2.5198,-2.5148,-2.5209,-2.5195,-2.5188,-2.5219,-2.5162,-2.5193,-2.5142,-2.5168,-2.514,-2.5195,-2.5199,-2.5188,-2.5181,-2.5194,-2.5196,-2.5204,-2.5195,-2.516,-2.5159,-2.5158,-2.5157,0,-2.5277,-2.5241,-2.5296,-2.5272,-2.5267,-2.5312,-2.5291,-2.5322,-2.5299,-2.5339,-2.5345,-2.531,-2.5337,-2.5301,-2.5325,-2.5306,-2.5382,-2.536,-2.5383,-2.5378,-2.5443,-2.5438,-2.5656,-2.5683,-2.5471,-2.5473,-2.5474,0,-2.5379,-2.5419,-2.5398,-2.5414,-2.541,-2.5436,-2.5447,-2.54,-2.5414,-2.5412,-2.5443,-2.5465,-2.548,-2.5526,-2.5503,-2.5521,-2.5501,-2.5576,-2.5503,-2.5516,-2.5503,-2.5502,-2.5506,-2.5592,-2.5594,-2.5596,-2.5598,0,-2.5563,-2.5543,-2.5561,-2.5572,-2.5587,-2.5594,-2.5597,-2.5614,-2.5564,-2.5583,-2.5609,-2.5621,-2.5644,-2.5666,-2.5678,-2.5671,-2.5628,-2.562,-2.5636,-2.5652,-2.5664,-2.566,-2.5426,-2.5616,-2.5615,-2.5613,-2.5612,-2.5612,-2.5704,-2.5736,-2.5726,-2.5748,-2.5744,-2.5748,-2.5776,-2.5755,-2.5776,-2.579,-2.576,-2.5794,-2.5788,-2.5798,-2.5797,-2.5823,-2.579,-2.5813,-2.5819,-2.5826,-2.5836,-2.5658,-2.5825,-2.5824,-2.5823,-2.5823,-2.5823,0,-2.5887,-2.5876,-2.5896,-2.5901,-2.5919,-2.5872,-2.5873,-2.5891,-2.592,-2.5918,-2.5933,-2.5963,-2.5984,-2.5962,-2.5979,-2.6004,-2.5984,-2.601,-2.6009,-2.6008,-2.5864,-2.5849,-2.6026,-2.6026,-2.6026,-2.6026,-2.6026,-2.6026,-2.5984,-2.6037,-2.6015,-2.6065,-2.6054,-2.6086,-2.609,-2.6093,-2.6091,-2.6126,-2.6143,-2.6127,-2.6117,-2.6132,-2.615,-2.6143,-2.6153,-2.6186,-2.6173,-2.6038,-2.6018,-2.6,-2.5986,-2.6188,-2.6189,-2.6315,-2.6316,-2.6317]},{"header":{"parameterUnit":"m.s-1","parameterCategory":1,"la1":30.2991,"la2":30.254,"lo1":-89.0895,"lo2":-89.0444,"dy":0.0017,"dx":0.0017,"nx":28,"ny":28,"refTime":"2023-03-27T15:00:00:Z","depth":0,"parameterNumber":3,"parameterNumberName":"V-component_of_WINDS"},"data":[0,0,0,0,0,0,0,0,0,0,0,0,0,0,0,0,0,0,0,0,0,0,0,0,0,0,0,0,0,0,0,0,0,0,0,0,0,0,0,0,0,0,0,0,0,0,0,0,0,0,0,0,0,0,0,0,0,0,-6.639,-6.6392,0,-6.6526,-6.6527,-6.6529,-6.6464,-6.6461,-6.6457,-6.6454,-6.6587,-6.6593,-6.66,0,0,0,0,0,0,0,0,0,0,0,0,0,-6.6069,-6.6075,-6.639,-6.6392,-6.6394,-6.6525,-6.6527,-6.6529,-6.6465,-6.646,-6.6456,-6.6452,-6.6585,-6.6593,-6.6601,0,0,0,0,0,0,0,0,0,0,0,0,0,-6.6207,-6.6077,-6.639,-6.6377,-6.6378,-6.6525,-6.6527,-6.653,-6.6465,-6.646,-6.6455,-6.645,-6.6582,-6.6592,-6.6602,-6.6768,0,0,-6.6633,-6.6637,0,0,0,0,0,0,0,0,-6.6199,-6.6219,-6.6377,-6.6378,-6.6379,-6.6473,-6.6463,-6.6609,-6.6467,-6.6432,-6.6454,-6.6448,-6.6553,-6.6565,-6.6601,-6.6774,-6.678,-6.6634,-6.664,-6.6644,-6.6647,0,0,0,0,0,0,0,-6.619,-6.6212,-6.6444,-6.638,-6.6381,-6.6363,-6.6377,-6.649,-6.6519,-6.6435,-6.643,-6.6447,-6.6552,-6.6592,-6.6604,-6.6782,-6.6633,-6.6642,-6.6649,-6.6653,-6.7095,-6.7101,0,0,0,0,0,0,-6.6181,-6.6205,-6.6439,-6.6448,-6.6275,-6.6373,-6.6388,-6.6448,-6.6518,-6.6524,-6.6452,-6.6444,-6.6577,-6.6592,-6.6609,-6.6807,-6.6644,-6.6654,-6.6659,-6.709,-6.7097,-6.7103,0,0,0,0,0,0,-6.6175,-6.6203,-6.6434,-6.6325,-6.6353,-6.6384,-6.6451,-6.6453,-6.6493,-6.6531,-6.6535,-6.6488,-6.6574,-6.6594,-6.6729,-6.6811,-6.6658,-6.6667,-6.7083,-6.7092,-6.71,-6.7206,0,0,0,0,0,0,-6.6166,-6.6201,-6.6266,-6.6327,-6.6359,-6.6554,-6.6456,-6.646,-6.6511,-6.6502,-6.6566,-6.6571,-6.6571,-6.6714,-6.6739,-6.6822,-6.6675,-6.7076,-6.7087,-6.7097,-6.7195,-6.7217,-6.7236,0,0,0,0,0,-6.6155,-6.6289,-6.627,-6.6298,-6.6442,-6.6559,-6.6577,-6.6576,-6.6518,-6.6583,-6.6607,-6.6569,-6.6798,-6.6728,-6.6756,-6.6843,-6.7071,-6.7084,-6.7096,-6.7186,-6.7213,-6.7235,0,0,0,0,0,0,-6.6235,-6.6297,-6.6276,-6.6435,-6.6493,-6.6548,-6.663,-6.6604,-6.6678,-6.6666,-6.6659,-6.6674,-6.6814,-6.6841,-6.6763,-6.7007,-6.6925,-6.6944,-6.6984,-6.7009,-6.7029,-6.702,-6.6684,0,0,0,0,0,-6.6272,-6.6364,-6.6412,-6.6548,-6.6578,-6.6599,-6.665,-6.6644,-6.6703,-6.6726,-6.676,-6.6816,-6.6901,-6.6956,-6.7036,-6.7198,-6.721,-6.7272,-6.7292,-6.7308,-6.7325,-6.7412,-6.7439,-6.7145,-6.7145,-6.7145,0,0,-6.6348,-6.6393,-6.6451,-6.6565,-6.6609,-6.6703,-6.662,-6.6722,-6.6791,-6.6741,-6.6871,-6.6897,-6.696,-6.7109,-6.7176,-6.7136,-6.7409,-6.7325,-6.7337,-6.7345,-6.7428,-6.7456,-6.748,-6.7154,-6.7152,-6.7151,0,0,-6.6534,-6.6578,-6.6696,-6.6742,-6.681,-6.6823,-6.6851,-6.691,-6.6927,-6.7057,-6.7021,-6.7101,-6.7247,-6.7293,-6.7335,-6.7538,-6.7506,-6.7564,-6.767,-6.7754,-6.7778,-6.7798,-6.787,-6.7896,-6.758,-6.758,-6.758,0,-6.662,-6.6762,-6.6759,-6.6865,-6.6916,-6.6876,-6.6994,-6.7037,-6.7127,-6.7162,-6.7116,-6.7298,-6.7337,-6.7496,-6.7545,-6.7581,-6.7612,-6.7557,-6.7775,-6.7795,-6.7814,-6.7883,-6.791,-6.7587,-6.7586,-6.7585,-6.7585,0,-6.6863,-6.6962,-6.7048,-6.7138,-6.7198,-6.7309,-6.7322,-6.7382,-6.7371,-6.7388,-6.752,-6.7565,-6.7653,-6.769,-6.7679,-6.7848,-6.7821,-6.7775,-6.7693,-6.7849,-6.7913,-6.794,-6.7596,-6.7594,-6.7592,-6.759,0,0,-6.7105,-6.7192,-6.7224,-6.7264,-6.7335,-6.741,-6.7519,-6.7607,-6.7658,-6.7721,-6.7811,-6.7935,-6.7893,-6.7941,-6.7934,-6.8009,-6.8166,-6.7954,-6.7955,-6.7992,-6.8353,-6.8387,-6.8418,-6.8145,-6.815,-6.8154,-6.8348,0,-6.7297,-6.749,-6.749,-6.7667,-6.7757,-6.772,-6.7814,-6.7867,-6.7885,-6.7963,-6.7982,-6.807,-6.8008,-6.8037,-6.8109,-6.8132,-6.8238,-6.8118,-6.8227,-6.8231,-6.8213,-6.8451,-6.8488,-6.8669,-6.8373,-6.8377,-6.838,0,-6.7547,-6.762,-6.7806,-6.7864,-6.7902,-6.7987,-6.8067,-6.8142,-6.82,-6.8208,-6.8262,-6.8244,-6.8352,-6.8266,-6.8414,-6.8332,-6.8376,-6.8394,-6.8401,-6.8411,-6.8315,-6.8468,-6.8727,-6.8754,-6.842,-6.8416,-6.8414,0,-6.7705,-6.7849,-6.7979,-6.8014,-6.8085,-6.8146,-6.8177,-6.8231,-6.8283,-6.8352,-6.8386,-6.8465,-6.8509,-6.857,-6.8573,-6.8511,-6.8722,-6.8637,-6.8731,-6.8731,-6.8777,-6.8775,-6.9047,-6.8806,-6.8805,-6.8805,-6.8804,0,-6.7919,-6.8034,-6.8051,-6.8131,-6.8259,-6.8257,-6.8382,-6.8408,-6.8456,-6.8539,-6.851,-6.8588,-6.8587,-6.8665,-6.8668,-6.879,-6.8809,-6.8817,-6.8817,-6.8821,-6.882,-6.885,-6.8837,-6.8812,-6.881,-6.8809,-6.8808,0,-6.8117,-6.8133,-6.8273,-6.8328,-6.8345,-6.8436,-6.8483,-6.8558,-6.8573,-6.8679,-6.8703,-6.8727,-6.8818,-6.8827,-6.8932,-6.8933,-6.908,-6.9066,-6.9061,-6.9059,-6.9152,-6.9143,-6.9454,-6.9494,-6.9226,-6.9229,-6.9231,0,-6.8253,-6.8342,-6.8407,-6.8462,-6.8497,-6.8585,-6.8639,-6.8639,-6.8696,-6.8769,-6.8835,-6.8923,-6.8994,-6.9141,-6.9166,-6.9246,-6.9233,-6.9336,-6.9244,-6.9245,-6.9234,-6.9229,-6.9237,-6.9354,-6.9357,-6.9359,-6.9361,0,-6.8493,-6.8496,-6.8576,-6.8659,-6.8724,-6.8789,-6.8849,-6.8895,-6.8902,-6.8967,-6.9061,-6.9116,-6.9224,-6.9311,-6.939,-6.9419,-6.9392,-6.939,-6.9416,-6.942,-6.9414,-6.9419,-6.911,-6.9383,-6.9381,-6.9379,-6.9378,-6.9377,-6.8664,-6.8741,-6.8799,-6.8889,-6.8934,-6.8991,-6.9065,-6.909,-6.9169,-6.9258,-6.9252,-6.9356,-6.9409,-6.9512,-6.9548,-6.9627,-6.9592,-6.963,-6.9639,-6.9649,-6.9658,-6.9402,-6.9641,-6.964,-6.964,-6.9639,-6.9639,0,-6.8903,-6.8938,-6.9021,-6.9107,-6.9177,-6.9146,-6.921,-6.927,-6.9362,-6.9416,-6.9487,-6.9594,-6.9678,-6.971,-6.9792,-6.9849,-6.9838,-6.9871,-6.9866,-6.9874,-6.9685,-6.9654,-6.9878,-6.9878,-6.9878,-6.9878,-6.9878,-6.9878,-6.9035,-6.9163,-6.9173,-6.9322,-6.9356,-6.9459,-6.9498,-6.955,-6.9593,-6.9714,-6.9785,-6.9806,-6.985,-6.9935,-7.001,-7.0017,-7.0049,-7.0087,-7.0088,-6.9911,-6.9887,-6.9864,-6.9835,-7.0094,-7.0094,-7.027,-7.0272,-7.0273]}]]